Location: Orzech
(50.4330°N, 18.9330°E)
Time: 22:48:10
(UTC+01:00)

ISS - Pass Details

Date: 20 October 2024
Orbit: 407 x 420 km, 51.6° (Epoch: 02 November)

Event Time Altitude Azimuth Distance (km) Brightness Sun altitude
Exits shadow 04:49:34 11° 150° (SSE) 1,400 -0.9 -23.8°
Maximum altitude 04:50:15 12° 137° (SE) 1,368 -0.8 -23.7°
Drops below altitude 10° 04:51:30 10° 114° (ESE) 1,469 -0.3 -23.5°
Sets 04:54:41 0° 81° (E) 2,334 1.5 -23.0°
